#timestamp,LO_Frequency,Hit,StdDev 
1592856015.5,286046998.9,N
1592856035.4,286046998.4,N
1592856055.2,286046996.6,Y
1592856075.1,286047000.9,P
1592856076.0,286047000.9,N
1592856095.8,286047000.4,N
1592856115.6,286047001.1,N
1592856135.5,286047000.5,N
1592856155.3,286047000.9,N
1592856175.2,286047001.0,N
1592856195.9,286047000.8,N
1592856215.7,286047000.7,N
1592856235.6,286046998.9,N
1592856255.4,286047000.9,N
1592856275.2,286047002.4,Y
1592856295.1,286047001.0,P
1592856296.0,286047001.0,P
1592856315.8,286046999.7,N
1592856335.7,286046999.8,N
1592856355.5,286047000.2,N
1592856375.3,286047002.2,Y
1592856395.2,286046999.7,P
1592856415.0,286047002.4,P
1592856415.9,286047002.4,N
1592856435.8,286047002.8,N
1592856455.6,286047002.7,N
1592856475.4,286047001.5,N
1592856495.3,286047002.1,N
1592856515.1,286047002.1,N
1592856535.9,286047002.6,N
1592856555.7,286047002.3,N
1592856575.5,286046999.7,N
1592856595.4,286047002.4,N
1592856615.2,286046999.7,N
1592856635.0,286047002.4,N
1592856635.9,286047002.4,N
1592856655.8,286047002.6,N
1592856675.6,286047002.5,N
1592856695.5,286047001.9,N
1592856715.3,286047001.6,N
1592856735.1,286047002.5,N
1592856755.9,286047001.9,N
1592856775.7,286047001.3,N
1592856795.5,286047001.6,N
1592856815.4,286046999.7,N
1592856835.2,286047000.2,N
1592856855.1,286047002.1,N
1592856856.0,286047002.1,N
1592856875.8,286047001.8,N
1592856895.6,286047002.3,N
1592856915.5,286047001.6,N
1592856935.3,286047002.8,N
1592856955.2,286047002.7,N
1592856975.9,286047002.5,N
1592856995.7,286047002.5,N
1592857015.6,286047002.5,N
1592857035.4,286047002.5,N
1592857055.2,286047000.2,N
1592857075.1,286047002.8,N
1592857076.0,286047002.8,N
1592857095.8,286047001.6,N
1592857115.7,286047001.9,N
1592857135.5,286047004.2,Y
1592857155.3,286047002.8,P
1592857175.2,286047002.8,P
1592857195.0,286047002.6,P
1592857195.9,286047002.6,Y
1592857215.8,286047001.1,P
1592857235.6,286047001.0,N
1592857255.4,286046998.2,N
1592857275.3,286046999.0,N
1592857295.1,286046998.7,N
1592857315.9,286046998.8,N
1592857335.7,286047000.7,N
1592857355.5,286047001.2,N
1592857375.4,286047000.9,N
1592857395.2,286047001.2,N
1592857415.0,286047001.2,N
1592857415.9,286047001.2,N
1592857435.8,286047000.4,N
1592857455.6,286047002.7,N
1592857475.5,286047001.2,N
1592857495.3,286046998.5,N
1592857515.1,286046999.4,N
1592857535.9,286046999.0,N
1592857555.7,286047001.1,N
1592857575.5,286047001.1,N
1592857595.4,286047001.2,N
1592857615.2,286046998.8,N
1592857635.1,286047000.9,N
1592857636.0,286047000.9,N
1592857655.8,286047000.5,N
1592857675.6,286046999.9,N
1592857695.5,286046999.7,N
1592857715.3,286047000.8,N
1592857735.2,286047000.5,N
1592857755.9,286047000.7,N
1592857775.7,286047001.1,N
1592857795.6,286047000.3,N
1592857815.4,286047000.8,N
1592857835.2,286047000.5,N
1592857855.1,286046998.1,N
1592857856.0,286046998.1,N
1592857875.8,286046998.2,N
1592857895.7,286047001.2,N
1592857915.5,286046998.3,N
1592857935.3,286046998.5,N
1592857955.2,286047001.2,N
1592857975.0,286047000.1,N
1592857975.9,286047000.1,N
1592857995.8,286047000.5,N
1592858015.6,286047000.6,N
1592858035.4,286047000.4,N
1592858055.3,286047001.2,N
1592858075.1,286047002.3,N
1592858095.8,286047001.7,N
1592858115.7,286047003.4,Y
1592858135.5,286047001.4,P
1592858155.4,286047001.9,P
1592858175.2,286047000.0,N
1592858195.0,286047002.8,Y
1592858195.9,286047002.8,P
1592858215.8,286046999.8,N
1592858235.6,286047002.0,N
1592858255.5,286047000.6,N
1592858275.3,286046998.5,N
1592858295.1,286047000.8,N
1592858315.9,286047001.1,N
1592858335.7,286046998.3,N
1592858355.6,286046999.1,N
1592858375.4,286046997.0,N
1592858395.2,286046999.4,N
1592858415.1,286047000.7,N
1592858416.0,286047000.7,N
1592858435.8,286047000.5,N
1592858455.7,286047002.6,N
1592858475.5,286047004.2,N
1592858495.3,286047001.6,N
1592858515.2,286047004.2,N
1592858535.0,286047003.1,N
1592858535.9,286047003.1,N
1592858555.7,286046999.7,N
1592858575.6,286047000.6,N
1592858595.4,286046998.4,N
1592858615.3,286046996.5,N
1592858635.1,286046998.2,N
1592858655.8,286046999.2,N
1592858675.7,286046996.7,N
1592858695.5,286046997.8,N
1592858715.4,286046999.0,N
1592858735.2,286046998.8,N
1592858755.0,286046999.0,N
1592858755.9,286046999.0,N
1592858775.8,286046999.4,N
1592858795.6,286047001.2,N
1592858815.4,286046998.6,N
1592858835.3,286046998.2,N
1592858855.1,286046999.6,N
1592858875.9,286046999.6,N
1592858895.7,286046996.7,N
1592858915.5,286046997.2,N
1592858935.4,286046999.1,N
1592858955.2,286046996.9,N
1592858975.1,286046996.8,N
1592858976.0,286046996.8,N
1592858995.8,286046998.8,N
1592859015.6,286046998.9,N
1592859035.5,286046998.3,N
1592859055.3,286046999.5,N
1592859075.1,286046997.0,N
1592859095.9,286046997.1,N
1592859115.7,286046997.2,N
1592859135.6,286046996.9,N
1592859155.4,286046999.2,N
1592859175.2,286046996.9,N
1592859195.1,286046997.0,N
1592859196.0,286046997.0,N
1592859215.8,286046997.4,N
1592859235.7,286046997.0,N
1592859255.5,286046997.4,N
1592859275.3,286046996.9,N
1592859295.2,286046997.7,N
1592859315.0,286046996.2,Y
1592859315.9,286046996.2,P
1592859335.7,286046996.8,P
1592859355.6,286046999.4,N
1592859375.4,286046998.6,N
1592859395.3,286046998.9,N
1592859415.1,286046996.6,Y
1592859435.8,286047001.2,P
1592859455.7,286046998.4,N
1592859475.5,286046998.3,N
1592859495.4,286047000.7,N
1592859515.2,286047000.7,N
1592859535.0,286046998.6,N
1592859535.9,286046998.6,N
1592859555.8,286046998.9,N
1592859575.6,286046996.6,N
1592859595.4,286046996.7,N
